Laconia, New Hampshire, United States (03246)
Lat: 43.53N, Lon: 71.47W
Wx Zone: NHZ009
Local Info
Past Weather Observations for Saturday, August 22, 2015

NOTE: This archive is for the closest National Weather Service station to Laconia. Information may differ from the station used for current weather conditions.

Click here for Long-term Archive

Time Weather Temperature Dewpoint Humidity Pressure Winds Precip Visibility
23:55
Clear
63°F / 17°C 57°F / 14°C 83% 30.12 in
(1020 mb)
Calm - 10SM
23:35
Clear
63°F / 17°C 57°F / 14°C 83% 30.09 in
(1019 mb)
Calm - 10SM
23:15
Clear
63°F / 17°C 57°F / 14°C 83% 30.12 in
(1020 mb)
Calm - 10SM
22:55
Clear
63°F / 17°C 57°F / 14°C 83% 30.12 in
(1020 mb)
Calm - 10SM
22:35
Clear
63°F / 17°C 57°F / 14°C 83% 30.12 in
(1020 mb)
Calm - 10SM
22:15
Clear
63°F / 17°C 57°F / 14°C 83% 30.12 in
(1020 mb)
Calm - 10SM
21:55
Clear
63°F / 17°C 57°F / 14°C 83% 30.12 in
(1020 mb)
Calm - 10SM
21:35
Clear
64°F / 18°C 59°F / 15°C 83% 30.12 in
(1020 mb)
Calm - 10SM
21:15
Clear
64°F / 18°C 59°F / 15°C 83% 30.12 in
(1020 mb)
Calm - 10SM
20:55
Clear
64°F / 18°C 57°F / 14°C 78% 30.12 in
(1020 mb)
Calm - 10SM
20:35
Clear
64°F / 18°C 57°F / 14°C 78% 30.09 in
(1019 mb)
Calm - 10SM
20:15
Clear
66°F / 19°C 59°F / 15°C 78% 30.09 in
(1019 mb)
Calm - 10SM
19:55
Clear
66°F / 19°C 59°F / 15°C 78% 30.09 in
(1019 mb)
Calm - 10SM
19:35
Clear
68°F / 20°C 59°F / 15°C 73% 30.09 in
(1019 mb)
Calm - 10SM
19:15
Clear
70°F / 21°C 59°F / 15°C 69% 30.09 in
(1019 mb)
Calm - 10SM
18:55
Clear
72°F / 22°C 61°F / 16°C 69% 30.09 in
(1019 mb)
Calm - 10SM
18:35
Clear
73°F / 23°C 59°F / 15°C 61% 30.09 in
(1019 mb)
Calm - 10SM
18:15
Clear
73°F / 23°C 61°F / 16°C 65% 30.09 in
(1019 mb)
SE 3.5 mph
(SE 6 kph)
- 10SM
17:55
Clear
75°F / 24°C 59°F / 15°C 57% 30.09 in
(1019 mb)
E 5.8 mph
(E 9 kph)
- 10SM
17:35
Clear
77°F / 25°C 59°F / 15°C 54% 30.09 in
(1019 mb)
E 5.8 mph
(E 9 kph)
- 10SM
17:15
Clear
79°F / 26°C 59°F / 15°C 51% 30.09 in
(1019 mb)
SE 6.9 mph
(SE 11 kph)
- 10SM
16:55
Clear
79°F / 26°C 57°F / 14°C 48% 30.09 in
(1019 mb)
ESE 4.6 mph
(ESE 7 kph)
- 10SM
16:35
Clear
79°F / 26°C 57°F / 14°C 48% 30.09 in
(1019 mb)
E 9.2 mph
(E 15 kph)
- 10SM
16:15
Clear
79°F / 26°C 59°F / 15°C 51% 30.09 in
(1019 mb)
ESE 5.8 mph
(ESE 9 kph)
- 10SM
15:55
Clear
79°F / 26°C 57°F / 14°C 48% 30.09 in
(1019 mb)
SE 6.9 mph
(SE 11 kph)
- 10SM
15:35
Clear
79°F / 26°C 57°F / 14°C 48% 30.09 in
(1019 mb)
E 6.9 mph
(E 11 kph)
- 10SM
15:15
Clear
79°F / 26°C 57°F / 14°C 48% 30.09 in
(1019 mb)
ESE 6.9 mph
(ESE 11 kph)
- 10SM
14:55
Clear
79°F / 26°C 57°F / 14°C 48% 30.09 in
(1019 mb)
SE 6.9 mph
(SE 11 kph)
- 10SM
14:35
Clear
79°F / 26°C 57°F / 14°C 48% 30.09 in
(1019 mb)
NE 6.9 mph
(NE 11 kph)
- 9SM
14:15
Clear
79°F / 26°C 57°F / 14°C 48% 30.09 in
(1019 mb)
ENE 6.9 mph
(ENE 11 kph)
- 7SM
13:55
Clear
79°F / 26°C 57°F / 14°C 48% 30.09 in
(1019 mb)
ESE 8.1 mph
(ESE 13 kph)
- 6SM
13:35
Clear
79°F / 26°C 57°F / 14°C 48% 30.09 in
(1019 mb)
ENE 8.1 mph
(ENE 13 kph)
- 10SM
13:15
Clear
79°F / 26°C 57°F / 14°C 48% 30.09 in
(1019 mb)
NE 9.2 mph
(NE 15 kph)
- 2 1/2SM
12:55
Clear
79°F / 26°C 59°F / 15°C 51% 30.09 in
(1019 mb)
E 5.8 mph
(E 9 kph)
- 6SM
12:35
Clear
79°F / 26°C 59°F / 15°C 51% 30.09 in
(1019 mb)
ENE 10.4 mph
(ENE 17 kph)
- 7SM
12:15
Clear
77°F / 25°C 59°F / 15°C 54% 30.12 in
(1020 mb)
ENE 8.1 mph
(ENE 13 kph)
- 8SM
11:55
Clear
75°F / 24°C 59°F / 15°C 57% 30.12 in
(1020 mb)
ENE 6.9 mph
(ENE 11 kph)
- 7SM
11:35
Clear
75°F / 24°C 61°F / 16°C 61% 30.12 in
(1020 mb)
E 10.4 mph
(E 17 kph)
- 7SM
11:15
Partly Cloudy
75°F / 24°C 61°F / 16°C 61% 30.12 in
(1020 mb)
E 8.1 mph
(E 13 kph)
- 10SM
10:55
Partly Cloudy
75°F / 24°C 61°F / 16°C 61% 30.12 in
(1020 mb)
NE 5.8 mph
(NE 9 kph)
- 8SM
10:35
Clear
73°F / 23°C 61°F / 16°C 65% 30.12 in
(1020 mb)
NE 5.8 mph
(NE 9 kph)
- 8SM
10:15
Clear
73°F / 23°C 61°F / 16°C 65% 30.12 in
(1020 mb)
NE 8.1 mph
(NE 13 kph)
- 10SM
09:55
Clear
72°F / 22°C 61°F / 16°C 69% 30.12 in
(1020 mb)
NE 6.9 mph
(NE 11 kph)
- 10SM
09:35
Clear
72°F / 22°C 61°F / 16°C 69% 30.12 in
(1020 mb)
ENE 6.9 mph
(ENE 11 kph)
- 10SM
09:15
Partly Cloudy
72°F / 22°C 61°F / 16°C 69% 30.12 in
(1020 mb)
NNE 6.9 mph
(NNE 11 kph)
- 10SM
08:55
Mostly Cloudy
70°F / 21°C 61°F / 16°C 73% 30.12 in
(1020 mb)
NE 3.5 mph
(NE 6 kph)
- 10SM
08:35
Partly Cloudy
70°F / 21°C 61°F / 16°C 73% 30.12 in
(1020 mb)
NE 5.8 mph
(NE 9 kph)
- 10SM
08:15
Clear
70°F / 21°C 61°F / 16°C 73% 30.12 in
(1020 mb)
ENE 6.9 mph
(ENE 11 kph)
- 10SM
07:55
Clear
70°F / 21°C 63°F / 17°C 78% 30.12 in
(1020 mb)
NNE 4.6 mph
(NNE 7 kph)
- 10SM
07:35
Clear
72°F / 22°C 63°F / 17°C 73% 30.12 in
(1020 mb)
NNW 3.5 mph
(NNW 6 kph)
- 10SM
07:15
Clear
68°F / 20°C 61°F / 16°C 78% 30.12 in
(1020 mb)
Calm - 10SM
06:55
Partly Cloudy
64°F / 18°C 61°F / 16°C 88% 30.12 in
(1020 mb)
Calm - 10SM
06:35
Mostly Cloudy
64°F / 18°C 59°F / 15°C 83% 30.12 in
(1020 mb)
Calm - 10SM
06:15
Mostly Cloudy
63°F / 17°C 59°F / 15°C 88% 30.12 in
(1020 mb)
Calm - 10SM
05:55
Partly Cloudy
63°F / 17°C 59°F / 15°C 88% 30.12 in
(1020 mb)
Calm - 10SM
05:35
Mostly Cloudy
63°F / 17°C 59°F / 15°C 88% 30.12 in
(1020 mb)
Calm - 10SM
05:15
Mostly Cloudy
63°F / 17°C 59°F / 15°C 88% 30.09 in
(1019 mb)
Calm - 10SM
04:55
Clear
63°F / 17°C 61°F / 16°C 94% 30.09 in
(1019 mb)
Calm - 10SM
04:35
Clear
63°F / 17°C 61°F / 16°C 94% 30.09 in
(1019 mb)
Calm - 10SM
04:15
Clear
64°F / 18°C 61°F / 16°C 88% 30.09 in
(1019 mb)
Calm - 10SM
03:55
Partly Cloudy
64°F / 18°C 61°F / 16°C 88% 30.09 in
(1019 mb)
Calm - 10SM
03:35
Mostly Cloudy
64°F / 18°C 61°F / 16°C 88% 30.09 in
(1019 mb)
Calm - 10SM
03:15
Overcast
64°F / 18°C 61°F / 16°C 88% 30.09 in
(1019 mb)
Calm - 10SM
02:55
Overcast
66°F / 19°C 61°F / 16°C 83% 30.09 in
(1019 mb)
Calm - 10SM
02:35
Mostly Cloudy
66°F / 19°C 63°F / 17°C 88% 30.09 in
(1019 mb)
Calm - 10SM
02:15
Mostly Cloudy
64°F / 18°C 63°F / 17°C 94% 30.06 in
(1018 mb)
Calm - 10SM
01:55
Overcast
66°F / 19°C 61°F / 16°C 83% 30.06 in
(1018 mb)
Calm - 10SM
01:35
Mostly Cloudy
66°F / 19°C 63°F / 17°C 88% 30.06 in
(1018 mb)
Calm - 10SM
01:15
Partly Cloudy
66°F / 19°C 63°F / 17°C 88% 30.06 in
(1018 mb)
Calm - 10SM
00:55
Overcast
66°F / 19°C 63°F / 17°C 88% 30.06 in
(1018 mb)
Calm - 10SM
00:35
Overcast
66°F / 19°C 63°F / 17°C 88% 30.06 in
(1018 mb)
Calm - 10SM
00:15
Mostly Cloudy
66°F / 19°C 63°F / 17°C 88% 30.06 in
(1018 mb)
Calm - 10SM
Time Weather Temperature Dewpoint Humidity Pressure Winds Precip Visibility


Weather for websites

WeatherForYou.com, LLC is not responsible for any damages or problems caused by this service. Current weather conditions are obtained from the closest station including government and personal stations which may have varying degrees of accuracy. Weather forecasts are derived from the NOAA NDFD. Like all things, this site belongs to Jesus Christ... He just trusts us to maintain it. If you have any questions or comments email webmaster@weatherforyou.com

Copyright © 2015, WeatherForYou.com LLC. All rights reserved.